Location: Caltech
(34.1382°N, 118.1253°W)
Time: 00:54:30
(UTC-07:00)

A-11 Canister half - All Passes

Search period start: 24 May 2017 00:00
Search period end: 03 June 2017 00:00
Orbit: 1517 x 1683 km, 47.2° (Epoch: 23 May)

Date Brightness Start Highest point End Pass type
(mag) Time Alt. Az. Time Alt. Az. Time Alt. Az.
24 May - 00:15:30 10° SSW 00:24:28 51° SE 00:33:17 10° ENE visible
24 May - 02:20:06 10° WSW 02:29:16 59° NNW 02:38:25 10° NE visible
24 May - 04:27:24 10° WNW 04:35:47 36° N 04:44:13 10° ENE visible
24 May - 06:33:38 10° NW 06:42:35 49° NNE 06:51:41 10° E daylight
24 May - 08:38:37 10° WNW 08:47:53 70° SW 08:57:26 10° SE daylight
24 May - 10:46:07 10° W 10:51:40 17° SW 10:57:20 10° SSW daylight
24 May - 23:52:44 10° SSW 00:01:37 47° SE 00:10:19 10° ENE visible
25 May - 01:57:06 10° WSW 02:06:20 62° NNW 02:15:30 10° NE visible
25 May - 04:04:22 10° WNW 04:12:46 37° N 04:21:12 10° ENE visible
25 May - 06:10:43 10° NW 06:19:36 47° NNE 06:28:37 10° E daylight
25 May - 08:15:42 10° WNW 08:25:00 74° SW 08:34:34 10° SE daylight
25 May - 10:22:50 10° W 10:28:51 19° SW 10:35:00 10° SSW daylight
25 May - 23:30:00 10° SSW 23:38:46 44° SE 23:47:21 10° ENE visible
26 May - 01:34:06 10° WSW 01:43:24 65° NNW 01:52:36 10° NE visible
26 May - 03:41:20 10° WNW 03:49:45 37° N 03:58:11 10° ENE visible
26 May - 05:47:48 10° NW 05:56:37 46° NNE 06:05:34 10° E daylight
26 May - 07:52:48 10° NW 08:02:07 78° SW 08:11:41 10° SE daylight
26 May - 09:59:37 10° W 10:06:01 21° SW 10:12:35 10° S daylight
26 May - 23:07:16 10° SSW 23:15:55 41° SE 23:24:23 10° ENE visible
27 May - 01:11:08 10° WSW 01:20:28 68° NNW 01:29:42 10° NE visible
27 May - 03:18:17 10° WNW 03:26:45 37° N 03:35:12 10° ENE visible
27 May - 05:24:53 10° NW 05:33:38 44° NNE 05:42:31 10° E daylight
27 May - 07:29:54 10° NW 07:39:13 82° SW 07:48:47 10° SE daylight
27 May - 09:36:26 10° W 09:43:12 23° SW 09:50:08 10° S daylight
27 May - 22:44:34 10° SSW 22:53:05 38° SE 23:01:24 10° ENE visible
28 May - 00:48:09 10° WSW 00:57:33 71° NNW 01:06:49 10° NE visible
28 May - 02:55:14 10° WNW 03:03:44 38° N 03:12:13 10° ENE visible
28 May - 05:01:56 10° NW 05:10:39 43° NNE 05:19:27 10° E visible
28 May - 07:07:00 10° NW 07:16:20 87° SW 07:25:53 10° SE daylight
28 May - 09:13:18 10° WNW 09:20:22 25° SW 09:27:36 10° S daylight
28 May - 22:21:53 10° SSW 22:30:15 35° SE 22:38:23 10° ENE visible
29 May - 00:25:11 10° WSW 00:34:37 75° NNW 00:43:55 10° NE visible
29 May - 02:32:12 10° WNW 02:40:44 39° N 02:49:14 10° ENE visible
29 May - 04:39:00 10° NW 04:47:40 42° NNE 04:56:24 10° E visible
29 May - 06:44:06 10° NW 06:53:26 89° NE 07:02:58 10° SE daylight
29 May - 08:50:11 10° WNW 08:57:32 27° SW 09:05:04 10° S daylight
29 May - 21:59:14 10° S 22:07:24 33° SE 22:15:22 10° ENE visible
30 May - 00:02:13 10° WSW 00:11:43 79° NW 00:21:02 10° NE visible
30 May - 02:09:08 10° W 02:17:44 39° NNW 02:26:17 10° NE visible
30 May - 04:16:03 10° NW 04:24:40 41° NNE 04:33:20 10° E visible
30 May - 06:21:12 10° NW 06:30:32 85° NE 06:40:02 10° SE daylight
30 May - 08:27:07 10° WNW 08:34:43 29° SW 08:42:29 10° S daylight
30 May - 21:36:36 10° S 21:44:34 30° SE 21:52:20 10° ENE visible
30 May - 23:39:16 10° SW 23:48:48 83° NW 23:58:08 10° NE visible
31 May - 01:46:04 10° W 01:54:44 40° NNW 02:03:19 10° NE visible
31 May - 03:53:06 10° NW 04:01:40 40° NNE 04:10:17 10° E visible
31 May - 05:58:19 10° NW 06:07:38 81° NE 06:17:06 10° ESE daylight
31 May - 08:04:04 10° WNW 08:11:52 31° SW 08:19:52 10° S daylight
31 May - 21:14:00 10° S 21:21:44 28° SE 21:29:17 10° ENE visible
31 May - 23:16:20 10° SW 23:25:54 87° NW 23:35:15 10° NE visible
01 Jun - 01:23:01 10° W 01:31:44 41° NNW 01:40:22 10° NE visible
01 Jun - 03:30:08 10° NW 03:38:40 39° N 03:47:14 10° ENE visible
01 Jun - 05:35:26 10° NW 05:44:43 77° NE 05:54:09 10° ESE daylight
01 Jun - 07:41:02 10° WNW 07:49:03 34° SW 07:57:14 10° S daylight
01 Jun - 20:51:25 10° S 20:58:54 26° SE 21:06:11 10° ENE visible
01 Jun - 22:53:24 10° SW 23:03:00 89° SE 23:12:21 10° NE visible
02 Jun - 00:59:57 10° W 01:08:44 42° NNW 01:17:26 10° NE visible
02 Jun - 03:07:10 10° WNW 03:15:41 38° N 03:24:10 10° ENE visible
02 Jun - 05:12:32 10° NW 05:21:48 74° NNE 05:31:11 10° ESE visible
02 Jun - 07:18:01 10° WNW 07:26:13 36° SW 07:34:34 10° SSE daylight
02 Jun - 20:28:54 10° S 20:36:04 24° SE 20:43:05 10° ENE visible
02 Jun - 22:30:29 10° SW 22:40:06 85° SE 22:49:27 10° NE visible
